Terug naar catalogus

SZ-23

ActiefWetenschapVLEO
NORAD 69180·PAYLOAD·🇨🇳 China

Gelanceerd May 24, 2026 vanaf Jiuquan Satellite Launch Center

Loading…

Volgende Passages (komende 24 uur)

TLE

VersSource: Space-Track

Epoch: Sep 14, 2026, 14:01 UTC

1 69180U 26113A   26257.58463244  .00018605  00000-0  22780-3 0  9997
2 69180  41.4676 139.2408 0002663 278.8217  81.2320 15.59928303307554

Volg SZ-23 in realtime met AllMySat

Download on the App Store